QPF
0.00 0.00 0.00 0.00 0.00 0.00 0.00 0.00 0.00 0.00 0.00 0.00 0.00 0.00 0.00 0.00 0.00 0.00 0.00 0.00 0.00 0.00 0.00 0.00 0.00 0.00 0.00 0.00 0.00 0.00 0.00 0.00 0.00 0.00 0.00 0.00 0.00 0.00 0.00 0.00 0.00 0.00 0.00 0.00 0.00
0.00 0.00 0.00 0.00 0.00 0.00 0.00 0.00 0.00 0.00 0.00 0.00 0.00 0.00 0.00 0.00 0.00 0.00 0.00 0.00 0.00 0.00 0.00 0.00 0.00 0.00 0.00 0.00 0.00 0.00 0.00 0.00 0.00 0.00 0.00 0.00 0.00 0.00 0.00 0.00 0.00 0.00 0.00 0.00 0.00
0.00 0.00 0.00 0.00 0.00 0.00 0.00 0.00 0.00 0.00 0.00 0.00 0.00 0.00 0.00 0.00 0.00 0.00 0.00 0.00 0.00 0.00 0.00 0.00 0.00 0.00 0.00 0.00 0.00 0.00 0.00 0.00 0.00 0.00 0.00 0.00 0.00 0.00 0.00 0.00 0.00 0.00 0.00 0.00 0.00
0.00 0.00 0.00 0.00 0.00 0.00 0.00 0.00 0.00 0.00 0.00 0.00 0.00 0.00 0.00 0.00 0.00 0.00 0.00 0.00 0.00 0.00 0.00 0.00 0.00 0.00 0.00 0.00 0.00 0.00 0.00 0.00 0.00 0.00 0.00 0.00 0.00 0.00 0.00 0.00 0.00 0.00 0.00 0.00 0.00
0.00 0.00 0.00 0.00 0.00 0.00 0.00 0.00 0.00 0.00 0.00 0.00 0.00 0.00 0.00 0.00 0.00 0.00 0.00 0.00 0.00 0.00 0.00 0.00 0.00 0.00 0.00 0.00 0.00 0.00 0.00 0.00 0.00 0.00 0.00 0.00 0.00 0.00 0.00 0.00 0.00 0.00 0.00 0.00 0.00
0.00 0.00 0.00 0.00 0.00 0.00 0.00 0.00 0.00 0.00 0.00 0.00 0.00 0.00 0.00 0.00 0.00 0.00 0.00 0.00 0.00 0.00 0.00 0.00 0.00 0.00 0.00 0.00 0.00 0.00 0.00 0.00 0.00 0.00 0.00 0.00 0.00 0.00 0.00 0.00 0.00 0.00 0.00 0.00 0.00
0.00 0.00 0.00 0.00 0.00 0.00 0.00 0.00 0.00 0.00 0.00 0.00 0.00 0.00 0.00 0.00 0.00 0.00 0.00 0.00 0.00 0.00 0.00 0.00 0.00 0.00 0.00 0.00 0.00 0.00 0.00 0.00 0.00 0.00 0.00 0.00 0.00 0.00 0.00 0.00 0.00 0.00 0.00 0.00 0.00
0.00 0.00 0.00 0.00 0.00 0.00 0.00 0.00 0.00 0.00 0.00 0.00 0.00 0.00 0.00 0.00 0.00 0.00 0.00 0.00 0.00 0.00 0.00 0.00 0.00 0.00 0.00 0.00 0.00 0.00 0.00 0.00 0.00 0.00 0.00 0.00 0.00 0.00 0.00 0.00 0.00 0.00 0.00 0.00 0.00
0.00 0.00 0.00 0.00 0.00 0.00 0.00 0.00 0.00 0.00 0.00 0.00 0.00 0.00 0.00 0.00 0.00 0.00 0.00 0.00 0.00 0.00 0.00 0.00 0.00 0.00 0.00 0.00 0.00 0.00 0.00 0.00 0.00 0.00 0.00 0.00 0.00 0.00 0.00 0.00 0.00 0.00 0.00 0.00 0.00
0.00 0.00 0.00 0.00 0.00 0.00 0.00 0.00 0.00 0.00 0.00 0.00 0.00 0.00 0.00 0.00 0.00 0.00 0.00 0.00 0.00 0.00 0.00 0.00 0.00 0.00 0.00 0.00 0.00 0.00 0.00 0.00 0.00 0.00 0.00 0.00 0.00 0.00 0.00 0.00 0.00 0.00 0.00 0.00 0.00
0.00 0.00 0.00 0.00 0.00 0.00 0.00 0.00 0.00 0.00 0.00 0.00 0.00 0.00 0.00 0.00 0.00 0.00 0.00 0.00 0.00 0.00 0.00 0.00 0.00 0.00 0.00 0.00 0.00 0.00 0.00 0.00 0.00 0.00 0.00 0.00 0.00 0.00 0.00 0.00 0.00 0.00 0.00 0.00 0.00
0.00 0.00 0.00 0.00 0.00 0.00 0.00 0.00 0.00 0.00 0.00 0.00 0.00 0.00 0.00 0.00 0.00 0.00 0.00 0.00 0.00 0.00 0.00 0.00 0.00 0.00 0.00 0.00 0.00 0.00 0.00 0.00 0.00 0.00 0.00 0.00 0.00 0.00 0.00 0.00 0.00 0.00 0.00 0.00 0.00
0.00 0.00 0.00 0.00 0.00 0.00 0.00 0.00 0.00 0.00 0.00 0.00 0.00 0.00 0.00 0.00 0.00 0.00 0.00 0.00 0.00 0.00 0.00 0.00 0.00 0.00 0.00 0.00 0.00 0.00 0.00 0.00 0.00 0.00 0.00 0.00 0.00 0.00 0.00 0.00 0.00 0.00 0.00 0.00 0.00
0.00 0.00 0.00 0.00 0.00 0.00 0.00 0.00 0.00 0.00 0.00 0.00 0.00 0.00 0.00 0.00 0.00 0.00 0.00 0.00 0.00 0.00 0.00 0.00 0.00 0.00 0.00 0.00 0.00 0.00 0.00 0.00 0.00 0.00 0.00 0.00 0.00 0.00 0.00 0.00 0.00 0.00 0.00 0.00 0.00
0.00 0.00 0.00 0.00 0.00 0.00 0.00 0.00 0.00 0.00 0.00 0.00 0.00 0.00 0.00 0.00 0.00 0.00 0.00 0.00 0.00 0.00 0.00 0.00 0.00 0.00 0.00 0.00 0.00 0.00 0.00 0.00 0.00 0.00 0.00 0.00 0.00 0.00 0.00 0.00 0.00 0.00 0.00 0.00 0.00
0.00 0.00 0.00 0.00 0.00 0.00 0.00 0.00 0.00 0.00 0.00 0.00 0.00 0.00 0.00 0.00 0.00 0.00 0.00 0.00 0.00 0.00 0.00 0.00 0.00 0.00 0.00 0.00 0.00 0.00 0.00 0.00 0.00 0.00 0.00 0.00 0.00 0.00 0.00 0.00 0.00 0.00 0.00 0.00 0.00
0.00 0.00 0.00 0.00 0.00 0.00 0.00 0.00 0.00 0.00 0.00 0.00 0.00 0.00 0.00 0.00 0.00 0.00 0.00 0.00 0.01 0.01 0.02 0.00 0.00 0.00 0.00 0.00 0.00 0.00 0.00 0.00 0.00 0.00 0.00 0.00 0.00 0.00 0.00 0.00 0.00 0.00 0.00 0.00 0.00
0.00 0.00 0.00 0.00 0.00 0.00 0.00 0.00 0.00 0.00 0.00 0.00 0.00 0.00 0.00 0.00 0.00 0.00 0.00 0.00 0.01 0.04 0.04 0.05 0.02 0.00 0.00 0.00 0.00 0.00 0.00 0.00 0.00 0.00 0.00 0.00 0.00 0.00 0.00 0.00 0.00 0.00 0.00 0.00 0.00
0.00 0.00 0.00 0.00 0.00 0.00 0.00 0.00 0.00 0.00 0.00 0.00 0.00 0.00 0.00 0.00 0.00 0.00 0.00 0.00 0.01 0.04 0.05 0.03 0.04 0.00 0.00 0.00 0.00 0.01 0.01 0.00 0.00 0.00 0.00 0.00 0.00 0.00 0.00 0.00 0.00 0.00 0.00 0.00 0.00
0.00 0.00 0.00 0.00 0.00 0.00 0.00 0.00 0.00 0.00 0.00 0.00 0.00 0.00 0.00 0.00 0.00 0.00 0.00 0.00 0.01 0.02 0.02 0.03 0.02 0.00 0.00 0.00 0.01 0.02 0.03 0.02 0.00 0.00 0.00 0.00 0.00 0.00 0.00 0.00 0.00 0.00 0.00 0.00 0.00
0.00 0.00 0.00 0.00 0.00 0.00 0.00 0.00 0.00 0.00 0.00 0.00 0.00 0.01 0.01 0.01 0.00 0.01 0.00 0.00 0.00 0.00 0.00 0.02 0.03 0.01 0.01 0.01 0.02 0.04 0.04 0.02 0.01 0.00 0.00 0.00 0.00 0.00 0.00 0.00 0.00 0.00 0.00 0.00 0.00
0.00 0.00 0.00 0.00 0.00 0.00 0.00 0.00 0.00 0.00 0.00 0.00 0.00 0.01 0.01 0.01 0.01 0.00 0.01 0.01 0.00 0.00 0.00 0.01 0.03 0.01 0.01 0.00 0.00 0.01 0.03 0.03 0.02 0.01 0.00 0.00 0.00 0.00 0.00 0.00 0.00 0.00 0.00 0.00 0.00
0.00 0.00 0.00 0.00 0.00 0.00 0.00 0.00 0.00 0.00 0.00 0.00 0.01 0.01 0.01 0.02 0.03 0.01 0.00 0.00 0.00 0.00 0.02 0.04 0.03 0.01 0.01 0.02 0.02 0.00 0.00 0.01 0.01 0.01 0.01 0.00 0.00 0.00 0.00 0.00 0.00 0.00 0.00 0.00 0.00
0.00 0.00 0.00 0.00 0.00 0.00 0.00 0.00 0.00 0.00 0.00 0.01 0.01 0.01 0.02 0.01 0.02 0.01 0.01 0.00 0.00 0.00 0.03 0.06 0.03 0.02 0.01 0.01 0.01 0.00 0.00 0.00 0.01 0.02 0.00 0.00 0.00 0.00 0.00 0.00 0.00 0.00 0.00 0.00 0.00
0.00 0.00 0.00 0.00 0.00 0.00 0.00 0.00 0.00 0.00 0.00 0.00 0.00 0.01 0.02 0.02 0.01 0.00 0.00 0.01 0.01 0.02 0.04 0.08 0.04 0.02 0.01 0.00 0.00 0.00 0.00 0.00 0.00 0.00 0.00 0.00 0.00 0.00 0.00 0.00 0.00 0.00 0.00 0.00 0.00
0.00 0.00 0.00 0.00 0.00 0.00 0.00 0.00 0.00 0.00 0.00 0.00 0.01 0.00 0.01 0.02 0.01 0.00 0.00 0.03 0.14 0.04 0.07 0.08 0.05 0.03 0.02 0.01 0.00 0.00 0.00 0.00 0.00 0.00 0.00 0.00 0.00 0.00 0.00 0.00 0.00 0.00 0.00 0.00 0.00
0.00 0.00 0.00 0.00 0.00 0.00 0.00 0.00 0.00 0.00 0.00 0.00 0.00 0.00 0.01 0.00 0.00 0.00 0.00 0.01 0.11 0.15 0.19 0.11 0.04 0.06 0.03 0.01 0.00 0.00 0.00 0.00 0.00 0.00 0.00 0.00 0.00 0.00 0.00 0.00 0.00 0.00 0.00 0.00 0.00
MSLP
1022.57 1022.21 1021.85 1021.51 1021.18 1020.85 1020.53 1020.20 1019.89 1019.52 1019.11 1018.56 1018.03 1017.63 1017.15 1016.74 1016.14 1014.49 1014.06 1014.32 1013.89 1013.60 1013.09 1011.91 1011.33 1010.76 1010.34 1009.01 1008.33 1008.08 1006.24 1004.11 1003.42 1003.38 1003.27 1003.17 1002.64 1001.56 1001.70 1001.14 1001.63 1001.33 1001.10 1001.82 1002.35
1022.60 1022.17 1021.80 1021.43 1021.05 1020.68 1020.36 1020.07 1019.72 1019.32 1018.85 1018.35 1017.96 1017.61 1017.14 1016.67 1015.35 1013.72 1014.54 1014.32 1013.89 1013.47 1012.28 1011.32 1010.29 1010.12 1009.31 1008.55 1007.76 1006.88 1005.05 1003.30 1003.41 1003.30 1003.85 1003.45 1002.87 1001.76 1001.96 1001.39 1001.35 1001.62 1002.51 1002.59 1002.62
1022.60 1022.15 1021.71 1021.34 1020.95 1020.53 1020.10 1019.71 1019.33 1018.96 1018.47 1018.00 1017.67 1017.33 1016.82 1016.41 1014.33 1013.02 1013.66 1014.07 1013.97 1013.26 1012.07 1011.53 1010.61 1009.75 1008.72 1007.85 1006.69 1005.71 1003.81 1003.19 1003.01 1003.50 1004.03 1003.41 1002.57 1002.35 1002.15 1000.98 1000.74 1001.01 1002.03 1002.53 1002.88
1022.54 1022.04 1021.56 1021.12 1020.69 1020.25 1019.82 1019.38 1018.93 1018.48 1017.95 1017.55 1017.37 1017.11 1016.70 1015.61 1013.29 1013.62 1014.21 1014.04 1013.70 1012.77 1011.69 1011.05 1010.75 1009.45 1008.14 1006.64 1006.19 1005.50 1004.03 1003.76 1003.24 1003.56 1004.21 1003.45 1002.81 1002.00 1001.69 1001.50 1001.18 1001.37 1002.14 1002.63 1002.67
1022.47 1021.99 1021.55 1021.12 1020.58 1020.03 1019.53 1019.08 1018.64 1018.27 1017.85 1017.40 1017.14 1016.91 1015.99 1013.82 1013.11 1013.51 1013.98 1013.42 1012.74 1012.22 1011.51 1010.93 1010.30 1009.33 1007.48 1006.50 1006.26 1004.87 1003.95 1003.70 1003.71 1003.84 1003.81 1003.86 1002.54 1001.97 1001.26 1001.34 1001.48 1001.63 1002.06 1002.30 1002.16
1022.42 1021.97 1021.47 1020.97 1020.40 1019.76 1019.15 1018.64 1018.34 1017.98 1017.55 1017.13 1016.91 1016.80 1015.25 1013.13 1013.36 1013.33 1013.29 1012.94 1012.36 1011.90 1011.34 1010.99 1010.20 1009.50 1008.28 1006.95 1005.54 1004.76 1004.50 1003.98 1003.58 1003.61 1003.65 1003.70 1002.09 1002.30 1000.69 1001.22 1001.08 1001.72 1001.49 1001.39 1001.21
1022.14 1021.74 1021.19 1020.67 1020.16 1019.54 1018.89 1018.40 1018.05 1017.69 1017.27 1016.83 1016.86 1016.38 1014.80 1013.21 1013.18 1013.00 1012.59 1012.51 1012.39 1012.08 1011.25 1010.93 1010.55 1009.99 1008.31 1007.53 1006.73 1005.74 1004.81 1003.93 1003.18 1003.14 1003.13 1003.40 1002.16 1000.20 1000.68 1000.88 1000.67 1000.88 1000.85 1000.81 1000.79
1021.85 1021.44 1020.89 1020.30 1019.84 1019.15 1018.44 1017.94 1017.60 1017.29 1016.88 1016.72 1016.72 1015.76 1013.33 1012.95 1012.99 1012.44 1011.90 1011.43 1011.47 1011.91 1011.71 1010.99 1010.59 1009.82 1008.94 1008.06 1007.08 1006.16 1005.33 1003.35 1001.35 1002.73 1002.57 1003.38 1000.31 998.71 1000.16 1000.09 999.98 1000.07 999.98 999.87 999.89
1021.81 1021.41 1020.88 1020.27 1019.69 1018.96 1018.13 1017.48 1017.00 1016.81 1016.79 1016.77 1016.03 1014.94 1012.35 1012.81 1012.20 1012.06 1011.73 1011.51 1011.20 1010.81 1011.22 1011.14 1010.45 1009.25 1008.33 1007.78 1006.71 1005.07 1002.74 1001.62 1001.21 1001.21 1002.21 1002.38 1000.05 998.94 999.74 999.37 998.94 999.14 999.06 999.08 998.92
1021.77 1021.34 1020.81 1020.15 1019.51 1018.81 1017.86 1016.89 1016.64 1016.62 1016.28 1015.81 1015.15 1014.49 1012.57 1012.24 1012.18 1011.99 1011.50 1011.32 1011.09 1010.61 1010.58 1010.43 1009.64 1008.37 1007.65 1006.66 1004.03 1002.83 1002.27 1002.10 1001.00 1000.47 1000.87 1000.79 999.30 999.41 999.14 998.83 998.41 998.46 998.65 998.54 998.54
1021.48 1021.04 1020.48 1019.84 1019.11 1018.47 1017.28 1015.97 1015.89 1015.09 1014.47 1014.27 1013.94 1013.66 1012.83 1012.50 1012.15 1011.54 1011.18 1010.99 1010.77 1010.51 1009.43 1008.68 1008.41 1006.86 1006.49 1005.93 1005.08 1004.29 1002.82 1001.30 1000.96 1000.76 1000.42 999.65 999.03 998.92 999.09 998.85 998.42 998.30 998.49 998.60 998.51
1021.28 1020.71 1020.15 1019.54 1018.89 1018.13 1017.19 1015.73 1016.45 1016.73 1014.85 1013.78 1013.71 1013.48 1013.18 1013.00 1012.07 1010.92 1011.30 1010.77 1010.23 1009.40 1008.63 1008.67 1007.22 1006.90 1006.75 1006.27 1005.38 1004.74 1003.88 1002.31 1002.13 1001.23 1000.82 1000.16 998.97 998.82 998.47 997.85 997.83 997.92 997.93 998.12 998.12
1021.01 1020.40 1019.79 1019.22 1018.64 1017.78 1016.61 1016.40 1016.56 1016.48 1014.81 1013.35 1012.96 1012.64 1012.28 1012.20 1011.27 1010.84 1010.82 1010.46 1009.88 1009.17 1008.47 1007.69 1006.73 1006.81 1007.07 1006.53 1006.12 1005.03 1004.28 1003.40 1002.56 1002.00 1001.60 1000.86 999.17 998.41 997.95 997.93 997.87 997.77 997.86 997.94 997.61
1020.61 1019.99 1019.45 1018.89 1018.65 1017.16 1016.44 1016.83 1016.72 1016.63 1014.24 1012.76 1012.20 1012.00 1011.91 1011.38 1010.74 1010.61 1010.48 1010.47 1009.71 1008.98 1008.54 1007.52 1006.91 1006.68 1006.55 1006.06 1005.76 1004.78 1004.69 1003.94 1003.39 1002.64 1000.74 1000.81 998.16 997.47 997.09 996.57 996.66 996.69 996.83 996.58 996.35
1020.16 1019.47 1018.99 1018.93 1017.83 1016.55 1016.98 1016.86 1016.74 1016.59 1013.45 1012.65 1011.97 1012.06 1011.53 1011.34 1011.10 1009.97 1010.07 1009.73 1009.29 1008.75 1008.58 1006.95 1006.64 1006.47 1005.96 1005.38 1005.15 1004.50 1004.51 1003.94 1003.64 1002.49 1001.80 1000.38 999.03 996.60 996.70 995.70 995.47 995.54 995.55 995.52 995.36
1019.70 1018.99 1018.58 1018.30 1017.69 1016.98 1016.97 1016.91 1016.73 1014.99 1012.78 1012.24 1012.03 1011.57 1011.04 1010.56 1010.34 1009.90 1009.65 1009.38 1009.11 1008.76 1007.98 1006.96 1006.72 1006.45 1005.94 1005.42 1005.26 1005.16 1004.76 1004.28 1004.09 1002.95 1000.60 999.51 998.75 996.09 995.45 994.51 994.46 994.44 994.40 994.59 994.35
1019.34 1018.72 1018.37 1017.33 1016.53 1016.99 1016.78 1016.15 1014.85 1013.24 1013.20 1012.28 1012.04 1011.69 1011.08 1010.41 1010.05 1009.83 1009.44 1008.71 1008.62 1008.57 1007.09 1006.67 1005.87 1005.66 1006.02 1005.79 1005.33 1005.16 1004.71 1003.60 1002.78 1001.86 1000.13 999.41 998.48 996.78 994.78 993.80 994.34 994.54 994.19 994.24 994.11
1018.90 1018.55 1017.98 1017.16 1016.86 1016.83 1016.18 1014.99 1013.84 1013.20 1012.85 1012.86 1012.44 1011.78 1011.01 1010.87 1010.30 1009.97 1009.37 1008.51 1008.48 1009.05 1008.07 1007.03 1005.95 1006.27 1005.70 1005.31 1005.17 1005.02 1004.38 1003.11 1000.87 999.79 999.09 999.06 996.92 995.72 995.28 994.88 994.46 994.71 994.31 994.08 993.71
1018.45 1017.25 1016.73 1016.73 1016.86 1016.55 1015.35 1013.90 1013.32 1013.44 1013.66 1013.31 1012.66 1011.45 1010.69 1010.70 1010.43 1009.84 1009.37 1008.88 1008.75 1008.79 1009.05 1007.74 1006.65 1006.13 1006.01 1005.37 1005.41 1005.10 1004.87 1004.03 1001.89 1000.51 997.86 996.47 996.86 996.09 995.05 994.96 994.45 994.28 994.27 993.90 993.46
1018.13 1016.73 1016.12 1016.65 1016.64 1015.92 1014.77 1014.12 1013.85 1014.22 1014.16 1013.75 1013.06 1012.17 1011.37 1010.95 1010.62 1009.87 1009.44 1009.20 1009.02 1008.98 1009.28 1008.60 1007.50 1006.27 1005.90 1005.85 1005.21 1005.43 1006.00 1005.78 1002.54 1000.90 997.64 995.47 994.83 994.20 993.30 994.36 994.38 994.63 994.50 993.67 993.40
1017.91 1016.06 1016.35 1016.46 1016.27 1015.09 1014.61 1014.00 1014.35 1014.38 1014.48 1014.02 1013.16 1012.55 1011.95 1011.63 1011.01 1010.30 1009.86 1009.55 1009.22 1009.11 1009.11 1008.54 1008.24 1006.68 1006.00 1005.37 1004.65 1005.78 1006.05 1005.56 1003.49 1000.95 997.60 995.28 993.47 993.19 993.66 994.67 995.27 995.11 994.55 994.05 994.11
1018.07 1015.83 1016.38 1016.17 1015.14 1015.47 1014.72 1015.01 1015.49 1014.34 1014.20 1014.00 1013.56 1012.89 1012.43 1011.99 1011.43 1010.52 1009.85 1009.76 1009.60 1009.59 1008.96 1008.58 1008.32 1006.80 1005.18 1004.67 1004.94 1005.39 1006.04 1005.53 1004.49 1001.88 998.95 997.22 993.99 993.74 994.34 995.05 995.53 995.20 994.82 994.34 995.42
1018.76 1017.12 1016.36 1016.06 1015.28 1015.25 1014.94 1015.05 1015.03 1014.55 1014.14 1013.91 1013.70 1013.21 1013.04 1012.45 1011.96 1010.71 1010.29 1009.97 1010.15 1009.96 1009.31 1009.18 1008.10 1006.51 1004.36 1004.31 1004.31 1004.34 1004.11 1004.87 1004.10 1003.13 1000.37 997.34 994.63 995.20 994.73 994.78 995.54 995.70 995.32 994.66 995.68
1019.37 1017.34 1016.02 1016.17 1016.48 1016.23 1015.53 1014.96 1014.53 1014.49 1014.17 1013.97 1013.87 1013.50 1012.81 1012.37 1011.73 1011.14 1010.44 1010.13 1010.16 1010.11 1010.24 1010.47 1008.99 1007.55 1005.56 1003.54 1003.70 1003.84 1003.94 1003.34 1002.80 1002.05 1000.25 998.01 995.49 994.95 994.62 994.83 995.71 996.39 995.83 995.14 996.05
1019.92 1018.71 1018.65 1016.71 1016.44 1016.69 1016.38 1015.93 1015.11 1014.57 1014.30 1014.10 1013.40 1013.32 1013.32 1012.65 1011.54 1010.60 1009.66 1009.34 1010.17 1010.53 1010.71 1010.47 1008.84 1007.66 1006.34 1005.15 1004.31 1003.94 1003.52 1003.11 1002.46 1001.56 1000.25 999.06 996.58 995.82 995.68 995.80 996.35 996.80 996.19 995.70 996.24
1020.69 1020.61 1019.57 1018.48 1017.75 1017.08 1016.24 1015.42 1015.16 1014.71 1014.61 1013.65 1013.54 1013.12 1013.19 1012.51 1011.65 1010.05 1009.74 1009.49 1009.92 1009.87 1010.14 1010.49 1008.97 1007.82 1006.13 1005.21 1003.89 1002.94 1002.46 1002.19 1001.76 1001.22 1000.51 999.24 997.22 997.30 997.02 997.07 997.01 996.57 996.17 995.77 995.87
1021.91 1021.98 1021.53 1019.42 1018.08 1017.62 1016.63 1016.32 1015.86 1015.39 1014.13 1013.60 1013.36 1013.10 1012.32 1011.06 1010.29 1009.38 1009.10 1008.63 1009.20 1009.57 1009.93 1009.78 1009.32 1007.80 1005.85 1004.20 1003.14 1001.94 1000.91 1000.50 1000.19 999.89 999.54 998.23 997.35 997.27 996.90 996.75 996.53 996.43 995.99 995.57 995.76
Thickness
5584 5587 5590 5593 5596 5599 5602 5605 5608 5612 5617 5623 5628 5632 5638 5643 5650 5668 5669 5672 5676 5683 5688 5698 5703 5708 5712 5719 5730 5731 5719 5730 5748 5751 5760 5775 5772 5799 5806 5799 5804 5814 5816 5817 5826
5581 5584 5586 5590 5593 5596 5599 5602 5605 5609 5613 5617 5621 5625 5631 5636 5650 5663 5659 5662 5668 5674 5684 5689 5696 5701 5703 5710 5718 5718 5722 5742 5764 5762 5751 5764 5769 5784 5780 5788 5792 5797 5804 5812 5816
5577 5580 5583 5586 5590 5593 5597 5600 5603 5606 5610 5614 5618 5622 5627 5631 5649 5659 5657 5657 5659 5666 5678 5682 5689 5692 5694 5708 5717 5724 5725 5756 5759 5758 5752 5757 5768 5778 5771 5774 5794 5794 5793 5799 5801
5575 5578 5581 5584 5587 5590 5594 5597 5601 5605 5609 5612 5613 5616 5620 5631 5648 5648 5643 5645 5650 5659 5669 5673 5672 5677 5687 5698 5714 5702 5734 5740 5752 5745 5739 5746 5766 5766 5771 5777 5796 5796 5794 5792 5794
5572 5574 5577 5580 5583 5587 5590 5593 5596 5599 5603 5606 5608 5611 5621 5637 5638 5639 5637 5642 5648 5654 5657 5660 5662 5668 5680 5694 5695 5702 5723 5731 5735 5731 5737 5741 5748 5758 5766 5784 5790 5789 5784 5786 5793
5567 5570 5573 5576 5580 5584 5588 5591 5593 5595 5598 5601 5602 5604 5617 5627 5630 5631 5632 5636 5641 5644 5649 5651 5654 5661 5665 5677 5688 5706 5704 5711 5721 5721 5726 5721 5744 5745 5770 5779 5780 5773 5779 5788 5795
5566 5567 5570 5573 5576 5580 5584 5587 5589 5592 5594 5596 5595 5598 5608 5616 5621 5622 5625 5627 5631 5633 5636 5643 5646 5644 5659 5657 5676 5681 5675 5692 5705 5716 5715 5720 5716 5739 5769 5771 5767 5772 5779 5784 5790
5564 5566 5568 5571 5573 5577 5581 5584 5586 5587 5589 5589 5588 5594 5607 5614 5612 5617 5622 5624 5625 5622 5624 5632 5634 5636 5640 5652 5654 5653 5659 5664 5717 5705 5714 5694 5705 5762 5765 5761 5758 5770 5778 5783 5789
5560 5561 5563 5565 5568 5572 5576 5581 5582 5582 5581 5579 5585 5589 5603 5606 5607 5608 5610 5607 5612 5617 5614 5616 5620 5627 5635 5628 5631 5651 5660 5677 5691 5709 5696 5681 5703 5752 5757 5752 5760 5763 5774 5778 5786
5557 5558 5559 5562 5565 5568 5574 5579 5578 5577 5577 5577 5581 5581 5596 5588 5592 5593 5598 5597 5594 5599 5598 5601 5607 5614 5619 5620 5634 5658 5656 5660 5669 5698 5689 5683 5705 5729 5738 5746 5750 5757 5763 5773 5777
5556 5556 5557 5560 5563 5565 5571 5582 5583 5583 5582 5579 5577 5573 5578 5580 5581 5581 5584 5580 5580 5580 5582 5597 5594 5602 5605 5613 5630 5632 5639 5654 5666 5681 5673 5683 5698 5713 5722 5729 5735 5743 5749 5756 5764
5555 5556 5557 5558 5561 5563 5566 5572 5562 5557 5564 5574 5568 5565 5564 5562 5559 5568 5567 5560 5561 5562 5573 5568 5577 5581 5587 5591 5603 5605 5609 5629 5642 5658 5662 5669 5679 5699 5712 5721 5732 5736 5743 5749 5759
5556 5556 5557 5557 5558 5562 5565 5562 5556 5553 5559 5565 5565 5560 5558 5555 5551 5550 5552 5547 5543 5544 5549 5551 5563 5562 5556 5561 5564 5578 5587 5605 5615 5632 5644 5647 5656 5680 5703 5711 5721 5730 5737 5740 5750
5556 5557 5557 5557 5557 5561 5560 5551 5546 5542 5556 5558 5556 5554 5551 5549 5542 5546 5542 5533 5531 5530 5532 5541 5550 5544 5540 5543 5551 5552 5575 5583 5590 5600 5615 5641 5636 5673 5694 5704 5714 5726 5732 5744 5754
5557 5557 5556 5551 5556 5560 5549 5543 5539 5535 5557 5551 5547 5548 5543 5534 5529 5533 5534 5527 5519 5524 5522 5537 5535 5534 5534 5541 5548 5547 5562 5569 5573 5586 5599 5620 5619 5670 5687 5694 5711 5724 5734 5743 5752
5556 5556 5554 5551 5549 5549 5542 5537 5533 5543 5545 5543 5540 5533 5532 5531 5525 5524 5520 5523 5521 5516 5523 5529 5537 5533 5533 5541 5541 5545 5545 5553 5557 5565 5576 5616 5615 5660 5678 5703 5715 5726 5735 5741 5751
5554 5554 5551 5551 5554 5542 5538 5537 5543 5548 5542 5537 5529 5528 5525 5523 5519 5514 5512 5516 5509 5500 5520 5527 5533 5538 5532 5524 5536 5535 5536 5541 5546 5552 5558 5609 5601 5642 5689 5709 5706 5710 5723 5733 5744
5552 5550 5549 5546 5543 5537 5537 5539 5535 5540 5535 5530 5523 5522 5516 5512 5511 5508 5508 5512 5513 5500 5506 5509 5518 5519 5529 5527 5523 5528 5537 5544 5557 5576 5584 5600 5596 5647 5680 5692 5702 5706 5718 5729 5739
5550 5553 5551 5544 5537 5534 5538 5538 5536 5530 5522 5515 5516 5518 5518 5510 5507 5506 5505 5506 5505 5504 5489 5501 5509 5525 5521 5528 5525 5524 5519 5544 5558 5571 5599 5618 5612 5646 5671 5677 5692 5700 5710 5720 5732
5547 5551 5551 5539 5533 5534 5535 5525 5526 5520 5513 5508 5499 5508 5503 5503 5500 5503 5502 5504 5499 5501 5497 5497 5496 5518 5520 5518 5523 5520 5517 5504 5547 5542 5576 5620 5625 5640 5668 5669 5683 5687 5695 5716 5726
5543 5551 5542 5535 5531 5535 5525 5530 5519 5513 5505 5499 5500 5499 5500 5493 5498 5498 5496 5499 5499 5497 5498 5500 5494 5508 5516 5515 5521 5504 5506 5516 5540 5567 5592 5614 5637 5658 5659 5661 5663 5675 5693 5709 5715
5534 5546 5534 5532 5536 5522 5523 5515 5501 5507 5503 5496 5495 5495 5493 5493 5490 5496 5496 5492 5497 5493 5491 5499 5492 5501 5517 5528 5525 5513 5504 5507 5509 5545 5578 5582 5622 5647 5652 5656 5661 5672 5690 5705 5700
5522 5527 5528 5528 5522 5517 5519 5510 5504 5499 5496 5491 5486 5490 5489 5487 5479 5493 5492 5494 5488 5486 5489 5491 5498 5502 5526 5525 5525 5520 5527 5511 5524 5526 5545 5584 5614 5629 5646 5654 5656 5663 5682 5700 5696
5512 5521 5528 5521 5512 5506 5506 5506 5505 5499 5492 5488 5481 5483 5488 5486 5490 5480 5485 5486 5484 5482 5479 5472 5486 5494 5506 5528 5522 5517 5518 5529 5532 5528 5548 5573 5605 5621 5636 5644 5646 5654 5672 5691 5690
5500 5507 5498 5518 5511 5500 5498 5493 5494 5491 5490 5484 5483 5483 5478 5472 5488 5489 5496 5491 5479 5472 5468 5463 5478 5492 5502 5511 5515 5514 5515 5520 5524 5535 5539 5554 5585 5602 5617 5628 5633 5644 5664 5679 5682
5490 5484 5493 5500 5498 5495 5494 5500 5495 5491 5484 5485 5481 5484 5477 5472 5479 5483 5487 5481 5462 5471 5464 5452 5474 5486 5494 5503 5515 5516 5521 5522 5525 5531 5534 5551 5571 5589 5603 5613 5626 5643 5659 5672 5680
5473 5466 5463 5488 5495 5485 5494 5489 5487 5485 5488 5489 5485 5479 5483 5492 5495 5496 5493 5492 5480 5462 5460 5457 5462 5483 5492 5512 5516 5515 5530 5533 5536 5540 5542 5550 5578 5590 5599 5610 5626 5639 5655 5669 5679